1998-067MG

Last updated on Sun Jun 04 2017 00:15:09 GMT+0000 (Coordinated Universal Time)

1 42727U 98067MG 17154.14161260 .00010411 00000-0 16033-3 0 9994 2 42727 51.6390 108.2938 0007577 214.2902 145.7601 15.54787718 1261

Satellite not in orbit

1998-067MG